N1135V KLGB-KATL

Flight info

Callsign N1135V
Flight time N/A
Altitude 41000
Route FRITR3 AVRRY EED J236 TBC CIM/N0490F450 MMB OKM KM33G MEMFS HUTCC KNSAW RUSSA GLAVN1
Aircraft C750/M-SBDE3FGHRWXY/S

Departure

Time 2026-04-28 17:52
Airport Long Beach International Airport (KLGB)

Arrival

Time N/A
Airport Hartsfield Jackson Atlanta International Airport (KATL)
Time Latitude Longitude Altitude Speed Heading
2026-04-28 17:31 33.81232 -118.15308 44 ft 0 kts 270°
2026-04-28 17:48 33.81239 -118.15327 44 ft 6 kts 326°
2026-04-28 17:48 33.81255 -118.15330 44 ft 7 kts 20°
2026-04-28 17:48 33.81303 -118.15285 42 ft 12 kts 68°
2026-04-28 17:48 33.81308 -118.15153 42 ft 19 kts 90°
2026-04-28 17:49 33.81308 -118.15041 40 ft 22 kts 90°
2026-04-28 17:49 33.81308 -118.14848 39 ft 22 kts 89°
2026-04-28 17:49 33.81254 -118.14681 36 ft 23 kts 131°
2026-04-28 17:49 33.81144 -118.14535 33 ft 24 kts 134°
2026-04-28 17:50 33.81025 -118.14387 33 ft 24 kts 135°
2026-04-28 17:50 33.80905 -118.14244 31 ft 25 kts 135°
2026-04-28 17:50 33.80779 -118.14089 30 ft 25 kts 134°
2026-04-28 17:50 33.80663 -118.13950 29 ft 9 kts 137°
2026-04-28 17:51 33.80644 -118.13911 29 ft 0 kts 93°
2026-04-28 17:51 33.80644 -118.13910 29 ft 1 kts 92°
2026-04-28 17:51 33.80658 -118.13869 29 ft 8 kts 44°
2026-04-28 17:51 33.80721 -118.13857 29 ft 9 kts 324°
2026-04-28 17:52 33.80808 -118.13964 30 ft 48 kts 315°
2026-04-28 17:52 33.81313 -118.14578 35 ft 151 kts 315°
2026-04-28 17:52 33.83325 -118.17010 1192 ft 227 kts 314°
2026-04-28 17:53 33.84344 -118.18443 2199 ft 231 kts 298°
2026-04-28 17:53 33.84594 -118.20312 3258 ft 234 kts 262°
2026-04-28 17:53 33.83953 -118.22151 3890 ft 254 kts 230°
2026-04-28 17:53 33.82481 -118.23403 4503 ft 265 kts 200°
2026-04-28 17:54 33.80712 -118.24017 4814 ft 265 kts 193°
2026-04-28 17:54 33.78904 -118.24506 5039 ft 268 kts 191°
2026-04-28 17:54 33.77081 -118.24958 5283 ft 267 kts 191°
2026-04-28 17:54 33.75250 -118.25427 5435 ft 268 kts 192°
2026-04-28 17:55 33.73394 -118.25451 5585 ft 266 kts 161°
2026-04-28 17:55 33.71814 -118.24345 5801 ft 261 kts 139°
2026-04-28 17:55 33.70649 -118.22690 5908 ft 261 kts 118°
2026-04-28 17:55 33.69870 -118.20720 6097 ft 262 kts 111°
2026-04-28 17:56 33.69198 -118.18687 6262 ft 264 kts 110°
2026-04-28 17:56 33.68524 -118.16601 6388 ft 267 kts 110°
2026-04-28 17:56 33.67861 -118.14507 6512 ft 270 kts 110°
2026-04-28 17:56 33.67180 -118.12387 6634 ft 273 kts 110°
2026-04-28 17:57 33.66499 -118.10249 6756 ft 274 kts 110°
2026-04-28 17:57 33.65813 -118.08111 6877 ft 276 kts 110°
2026-04-28 17:57 33.65115 -118.05927 7003 ft 277 kts 110°
2026-04-28 17:57 33.64494 -118.03725 7114 ft 278 kts 98°
2026-04-28 17:58 33.64459 -118.01424 7268 ft 276 kts 88°
2026-04-28 17:58 33.64451 -117.99107 7394 ft 277 kts 90°
2026-04-28 17:58 33.64451 -117.96762 7514 ft 279 kts 90°
2026-04-28 17:58 33.64449 -117.94443 7623 ft 280 kts 90°
2026-04-28 17:59 33.64443 -117.92102 7743 ft 280 kts 90°
2026-04-28 17:59 33.64430 -117.89804 7575 ft 287 kts 95°
2026-04-28 17:59 33.64426 -117.87444 7769 ft 283 kts 88°
2026-04-28 17:59 33.64434 -117.85078 7886 ft 283 kts 91°
2026-04-28 18:00 33.64421 -117.82686 8011 ft 284 kts 91°
2026-04-28 18:00 33.64421 -117.82614 8015 ft 284 kts 90°
2026-04-28 18:00 33.64414 -117.81078 8091 ft 285 kts 90°
2026-04-28 18:00 33.64475 -117.78724 8199 ft 286 kts 82°
2026-04-28 18:01 33.64646 -117.76354 8306 ft 286 kts 94°
2026-04-28 18:01 33.64420 -117.73960 8420 ft 287 kts 96°
2026-04-28 18:01 33.64290 -117.71559 8541 ft 287 kts 92°
2026-04-28 18:01 33.64227 -117.69183 8705 ft 286 kts 91°
2026-04-28 18:02 33.64209 -117.66787 8846 ft 288 kts 91°
2026-04-28 18:02 33.64171 -117.64295 9283 ft 306 kts 91°
2026-04-28 18:02 33.64130 -117.61736 10392 ft 311 kts 92°
2026-04-28 18:02 33.64088 -117.59094 11253 ft 326 kts 92°
2026-04-28 18:03 33.64041 -117.56319 12111 ft 339 kts 92°
2026-04-28 18:03 33.63995 -117.53461 13065 ft 348 kts 93°
2026-04-28 18:03 33.63943 -117.50584 14027 ft 354 kts 93°
2026-04-28 18:03 33.63893 -117.47585 14893 ft 362 kts 93°
2026-04-28 18:04 33.63839 -117.44550 15724 ft 370 kts 94°
2026-04-28 18:04 33.63781 -117.41444 16515 ft 377 kts 94°
2026-04-28 18:04 33.63726 -117.38261 17253 ft 385 kts 94°
2026-04-28 18:04 33.63667 -117.35039 17984 ft 392 kts 94°
2026-04-28 18:05 33.63602 -117.31752 18685 ft 399 kts 94°
2026-04-28 18:05 33.63558 -117.29499 19191 ft 402 kts 95°
2026-04-28 18:05 33.63473 -117.25043 20167 ft 408 kts 95°
2026-04-28 18:05 33.63401 -117.21622 20864 ft 413 kts 95°
2026-04-28 18:06 33.63322 -117.18139 21518 ft 418 kts 95°
2026-04-28 18:06 33.63241 -117.14626 22163 ft 423 kts 95°
2026-04-28 18:06 33.63158 -117.11108 22828 ft 427 kts 95°
2026-04-28 18:06 33.63071 -117.07532 23445 ft 432 kts 95°
2026-04-28 18:07 33.62993 -117.03914 24016 ft 437 kts 95°
2026-04-28 18:07 33.62901 -117.00249 24579 ft 442 kts 95°
2026-04-28 18:07 33.62811 -116.96535 25129 ft 448 kts 96°
2026-04-28 18:07 33.62715 -116.92755 25662 ft 453 kts 96°
2026-04-28 18:08 33.62609 -116.88957 26241 ft 456 kts 96°
2026-04-28 18:08 33.62515 -116.85169 26725 ft 462 kts 96°
2026-04-28 18:08 33.62421 -116.81310 27275 ft 465 kts 96°
2026-04-28 18:08 33.62320 -116.77412 27749 ft 471 kts 96°
2026-04-28 18:09 33.62221 -116.73434 28218 ft 476 kts 97°
2026-04-28 18:09 33.62114 -116.69466 28711 ft 480 kts 97°
2026-04-28 18:09 33.62003 -116.65452 29119 ft 485 kts 97°
2026-04-28 18:09 33.61897 -116.61407 29611 ft 489 kts 97°
2026-04-28 18:10 33.61779 -116.57324 30079 ft 492 kts 97°
2026-04-28 18:10 33.61662 -116.53187 30471 ft 497 kts 97°
2026-04-28 18:10 33.61547 -116.49030 30975 ft 500 kts 97°
2026-04-28 18:10 33.61427 -116.44820 31405 ft 504 kts 96°
2026-04-28 18:11 33.61303 -116.40601 31832 ft 508 kts 97°
2026-04-28 18:11 33.61181 -116.36340 32262 ft 511 kts 97°
2026-04-28 18:11 33.61057 -116.32104 32674 ft 514 kts 97°
2026-04-28 18:11 33.60949 -116.27790 33010 ft 519 kts 97°
2026-04-28 18:12 33.60840 -116.23448 33372 ft 522 kts 97°
2026-04-28 18:12 33.60725 -116.19059 33767 ft 525 kts 97°
2026-04-28 18:12 33.60614 -116.14666 34164 ft 528 kts 97°
2026-04-28 18:12 33.60493 -116.10282 34547 ft 531 kts 97°
2026-04-28 18:13 33.60428 -116.05872 35049 ft 534 kts 92°
2026-04-28 18:13 33.61153 -116.01430 35433 ft 543 kts 72°
2026-04-28 18:13 33.62531 -115.97208 35994 ft 542 kts 70°
2026-04-28 18:13 33.63882 -115.93002 36474 ft 542 kts 70°
2026-04-28 18:14 33.65228 -115.88797 36884 ft 542 kts 70°
2026-04-28 18:14 33.66572 -115.84549 37328 ft 543 kts 70°
2026-04-28 18:14 33.67912 -115.80302 37735 ft 544 kts 70°
2026-04-28 18:14 33.68811 -115.77439 38040 ft 544 kts 70°
2026-04-28 18:15 33.70592 -115.71799 38545 ft 545 kts 71°
2026-04-28 18:15 33.71925 -115.67539 38973 ft 545 kts 70°
2026-04-28 18:15 33.73268 -115.63258 39333 ft 546 kts 70°
2026-04-28 18:15 33.74695 -115.59020 39810 ft 545 kts 62°
2026-04-28 18:16 33.76873 -115.55316 40233 ft 538 kts 41°
2026-04-28 18:16 33.79622 -115.52312 40803 ft 530 kts 36°
2026-04-28 18:16 33.82402 -115.49403 41083 ft 533 kts 36°
2026-04-28 18:16 33.85183 -115.46452 41093 ft 540 kts 37°
2026-04-28 18:17 33.90878 -115.40367 41091 ft 546 kts 37°
2026-04-28 18:17 33.96543 -115.34304 41080 ft 548 kts 37°
2026-04-28 18:18 34.02270 -115.28171 41058 ft 548 kts 38°
2026-04-28 18:18 34.07001 -115.23090 41071 ft 548 kts 37°
2026-04-28 18:19 34.13692 -115.15891 41049 ft 548 kts 37°